Climatologie pour Saint-Brevin les Pins
Jour • Résumé pour mars 7, 2017 Système :  Métrique    Anglais   Mixte
« - 1 jour
+ 1 jour »
Jour Semaine Mois Année Personnalisé
  Maximum : Minimum : Moyenne :
Température sous abri : 10.9 °C 8.1 °C 9.3 °C
Point de rosée : 10.6 °C 5.3 °C 8.1 °C
Humidité : 98 % 80 % 93 %
Vitesse du vent : 24.1 km/h 0.0 km/h 5.9 km/h
Rafale : 24.1 km/h - -
Direction :- - WSW
Pression : 1022.2 hPa 1018.5 hPa -
Précipitations : 7.1 mm    
Historical Graphs
 
 
Tableau de données pour mars 7, 2017
Heure Tempé Pt rosée Pression Vent Vitesse Rafale Humidité Taux pluie (/hr) Soleil
00:00 8.6 °C 5.5 °C 1021.9 hPa West 6.4 km/h 19.3 km/h 81 % 0.0 mm 0 W/m2
00:05 8.6 °C 5.5 °C 1021.9 hPa WNW 4.8 km/h 19.3 km/h 81 % 0.0 mm 0 W/m2
00:10 8.6 °C 5.3 °C 1021.9 hPa NW 14.5 km/h 19.3 km/h 80 % 0.0 mm 0 W/m2
00:15 8.6 °C 5.5 °C 1021.9 hPa NW 4.8 km/h 19.3 km/h 81 % 0.0 mm 0 W/m2
00:20 8.6 °C 5.5 °C 1021.9 hPa WNW 8.0 km/h 19.3 km/h 81 % 0.0 mm 0 W/m2
00:25 8.7 °C 5.8 °C 1022.2 hPa WNW 12.9 km/h 14.5 km/h 82 % 0.0 mm 0 W/m2
00:30 8.8 °C 5.9 °C 1021.9 hPa WNW 6.4 km/h 16.1 km/h 82 % 0.0 mm 0 W/m2
00:40 8.9 °C 6.2 °C 1021.9 hPa WNW 8.0 km/h 16.1 km/h 83 % 0.0 mm 0 W/m2
00:45 9.1 °C 6.3 °C 1021.9 hPa NW 4.8 km/h 17.7 km/h 83 % 0.0 mm 0 W/m2
00:50 9.2 °C 6.4 °C 1021.9 hPa WNW 9.7 km/h 17.7 km/h 83 % 0.0 mm 0 W/m2
00:55 9.2 °C 6.3 °C 1021.9 hPa NW 14.5 km/h 22.5 km/h 82 % 0.0 mm 0 W/m2
01:00 9.2 °C 6.3 °C 1021.9 hPa NW 4.8 km/h 22.5 km/h 82 % 0.0 mm 0 W/m2
01:05 9.2 °C 6.3 °C 1021.9 hPa NW 11.3 km/h 19.3 km/h 82 % 0.0 mm 0 W/m2
01:10 9.3 °C 6.4 °C 1021.9 hPa NW 12.9 km/h 20.9 km/h 82 % 0.0 mm 0 W/m2
01:15 9.2 °C 6.1 °C 1021.9 hPa NW 9.7 km/h 24.1 km/h 81 % 0.0 mm 0 W/m2
01:20 9.1 °C 6.0 °C 1021.9 hPa NW 6.4 km/h 24.1 km/h 81 % 0.0 mm 0 W/m2
01:25 9.0 °C 5.9 °C 1021.9 hPa NW 9.7 km/h 17.7 km/h 81 % 0.0 mm 0 W/m2
01:30 8.9 °C 6.0 °C 1022.2 hPa WNW 9.7 km/h 17.7 km/h 82 % 0.0 mm 0 W/m2
01:35 8.9 °C 6.0 °C 1021.9 hPa West 9.7 km/h 16.1 km/h 82 % 0.0 mm 0 W/m2
01:40 8.9 °C 6.0 °C 1021.9 hPa NW 9.7 km/h 17.7 km/h 82 % 0.0 mm 0 W/m2
01:45 9.0 °C 5.9 °C 1022.2 hPa WNW 3.2 km/h 17.7 km/h 81 % 0.0 mm 0 W/m2
01:50 8.9 °C 5.9 °C 1022.2 hPa West 6.4 km/h 16.1 km/h 81 % 0.0 mm 0 W/m2
01:55 8.8 °C 5.9 °C 1022.2 hPa NW 9.7 km/h 17.7 km/h 82 % 0.0 mm 0 W/m2
02:00 8.9 °C 6.0 °C 1022.2 hPa WNW 6.4 km/h 17.7 km/h 82 % 0.0 mm 0 W/m2
02:10 8.9 °C 6.2 °C 1022.2 hPa NNW 4.8 km/h 17.7 km/h 83 % 0.0 mm 0 W/m2
02:15 8.9 °C 6.2 °C 1022.2 hPa WNW 8.0 km/h 17.7 km/h 83 % 0.0 mm 0 W/m2
02:20 8.8 °C 6.0 °C 1022.2 hPa WNW 6.4 km/h 14.5 km/h 83 % 0.0 mm 0 W/m2
02:25 8.8 °C 6.1 °C 1022.2 hPa WNW 8.0 km/h 17.7 km/h 83 % 0.0 mm 0 W/m2
02:30 8.8 °C 6.1 °C 1022.2 hPa Calm   20.9 km/h 83 % 0.0 mm 0 W/m2
02:40 8.8 °C 6.2 °C 1022.2 hPa WNW 3.2 km/h 12.9 km/h 84 % 0.0 mm 0 W/m2
02:45 8.8 °C 6.2 °C 1022.2 hPa WNW 8.0 km/h 12.9 km/h 84 % 0.0 mm 0 W/m2
02:50 8.8 °C 6.3 °C 1022.2 hPa WNW 9.7 km/h 14.5 km/h 84 % 0.0 mm 0 W/m2
02:55 8.8 °C 6.3 °C 1022.2 hPa NW 14.5 km/h 14.5 km/h 84 % 0.0 mm 0 W/m2
03:00 8.9 °C 6.3 °C 1022.2 hPa NW 8.0 km/h 14.5 km/h 84 % 0.0 mm 0 W/m2
03:05 8.8 °C 6.3 °C 1021.9 hPa WNW 6.4 km/h 16.1 km/h 84 % 0.0 mm 0 W/m2
03:10 8.8 °C 6.3 °C 1021.9 hPa NW 11.3 km/h 16.1 km/h 84 % 0.0 mm 0 W/m2
03:15 8.8 °C 6.2 °C 1021.9 hPa WNW 9.7 km/h 14.5 km/h 84 % 0.0 mm 0 W/m2
03:20 8.8 °C 6.0 °C 1021.9 hPa WNW 9.7 km/h 14.5 km/h 83 % 0.0 mm 0 W/m2
03:25 8.7 °C 6.0 °C 1021.9 hPa NW 6.4 km/h 14.5 km/h 83 % 0.0 mm 0 W/m2
03:30 8.8 °C 6.0 °C 1021.6 hPa WNW 11.3 km/h 16.1 km/h 83 % 0.0 mm 0 W/m2
03:40 8.8 °C 5.9 °C 1021.6 hPa WNW 9.7 km/h 14.5 km/h 82 % 0.0 mm 0 W/m2
03:45 8.7 °C 5.8 °C 1021.6 hPa WNW 4.8 km/h 11.3 km/h 82 % 0.0 mm 0 W/m2
03:50 8.7 °C 6.0 °C 1021.9 hPa WNW 4.8 km/h 12.9 km/h 83 % 0.0 mm 0 W/m2
03:55 8.7 °C 5.9 °C 1021.9 hPa WNW 4.8 km/h 12.9 km/h 83 % 0.0 mm 0 W/m2
04:00 8.7 °C 6.0 °C 1021.6 hPa WNW 4.8 km/h 12.9 km/h 83 % 0.0 mm 0 W/m2
04:05 8.7 °C 6.2 °C 1021.6 hPa WNW 4.8 km/h 11.3 km/h 84 % 0.0 mm 0 W/m2
04:10 8.7 °C 6.3 °C 1021.6 hPa West 3.2 km/h 11.3 km/h 85 % 0.0 mm 0 W/m2
04:20 8.7 °C 6.3 °C 1021.6 hPa Calm   11.3 km/h 85 % 0.0 mm 0 W/m2
04:25 8.6 °C 6.2 °C 1021.6 hPa WNW 8.0 km/h 11.3 km/h 85 % 0.0 mm 0 W/m2
04:30 8.7 °C 6.3 °C 1021.2 hPa West 3.2 km/h 9.7 km/h 85 % 0.0 mm 0 W/m2
04:35 8.7 °C 6.3 °C 1021.2 hPa WNW 1.6 km/h 9.7 km/h 85 % 0.0 mm 0 W/m2
04:40 8.7 °C 6.3 °C 1021.2 hPa WNW 3.2 km/h 9.7 km/h 85 % 0.0 mm 0 W/m2
04:45 8.7 °C 6.3 °C 1021.2 hPa West 6.4 km/h 12.9 km/h 85 % 0.0 mm 0 W/m2
04:50 8.7 °C 6.3 °C 1021.6 hPa WNW 3.2 km/h 12.9 km/h 85 % 0.0 mm 0 W/m2
04:55 8.8 °C 6.6 °C 1021.6 hPa West 4.8 km/h 9.7 km/h 86 % 0.0 mm 0 W/m2
05:00 8.8 °C 6.6 °C 1021.6 hPa NW 3.2 km/h 9.7 km/h 86 % 0.0 mm 0 W/m2
05:05 8.7 °C 6.7 °C 1021.6 hPa WNW 6.4 km/h 9.7 km/h 87 % 0.0 mm 0 W/m2
05:10 8.8 °C 6.6 °C 1021.6 hPa WNW 8.0 km/h 11.3 km/h 86 % 0.0 mm 0 W/m2
05:15 8.8 °C 6.6 °C 1021.6 hPa NW 3.2 km/h 12.9 km/h 86 % 0.0 mm 0 W/m2
05:20 8.8 °C 6.6 °C 1021.6 hPa WNW 4.8 km/h 12.9 km/h 86 % 0.0 mm 0 W/m2
05:25 8.9 °C 6.7 °C 1021.6 hPa WNW 8.0 km/h 11.3 km/h 86 % 0.0 mm 0 W/m2
05:30 8.9 °C 6.7 °C 1021.6 hPa NW 8.0 km/h 11.3 km/h 86 % 0.0 mm 0 W/m2
05:35 8.9 °C 6.7 °C 1021.6 hPa WNW 3.2 km/h 11.3 km/h 86 % 0.0 mm 0 W/m2
05:40 8.9 °C 6.7 °C 1021.6 hPa WNW 1.6 km/h 9.7 km/h 86 % 0.0 mm 0 W/m2
05:45 8.9 °C 6.7 °C 1021.2 hPa West 3.2 km/h 12.9 km/h 86 % 0.0 mm 0 W/m2
05:50 8.9 °C 6.7 °C 1021.6 hPa NW 11.3 km/h 12.9 km/h 86 % 0.0 mm 0 W/m2
05:55 8.9 °C 6.7 °C 1021.6 hPa WNW 3.2 km/h 12.9 km/h 86 % 0.0 mm 0 W/m2
06:00 8.9 °C 6.7 °C 1021.6 hPa WNW 1.6 km/h 12.9 km/h 86 % 0.0 mm 0 W/m2
06:05 8.8 °C 6.8 °C 1021.6 hPa WNW 4.8 km/h 8.0 km/h 87 % 0.0 mm 0 W/m2
06:10 8.8 °C 6.7 °C 1021.2 hPa WNW 1.6 km/h 8.0 km/h 87 % 0.0 mm 0 W/m2
06:15 8.7 °C 6.7 °C 1021.2 hPa WNW 3.2 km/h 8.0 km/h 87 % 0.0 mm 0 W/m2
06:20 8.7 °C 6.8 °C 1021.2 hPa WNW 4.8 km/h 8.0 km/h 88 % 0.0 mm 0 W/m2
07:25 8.8 °C 7.6 °C 1021.2 hPa Calm   4.8 km/h 92 % 0.0 mm 0 W/m2
07:30 8.8 °C 7.6 °C 1021.6 hPa Calm   4.8 km/h 92 % 0.0 mm 0 W/m2
07:40 8.8 °C 7.6 °C 1021.6 hPa West 1.6 km/h 8.0 km/h 92 % 0.0 mm 0 W/m2
07:45 8.7 °C 7.5 °C 1021.6 hPa West 1.6 km/h 6.4 km/h 92 % 0.0 mm 0 W/m2
07:50 8.7 °C 7.6 °C 1021.9 hPa West 3.2 km/h 6.4 km/h 93 % 0.0 mm 0 W/m2
07:55 8.7 °C 7.6 °C 1021.9 hPa Calm   4.8 km/h 93 % 0.0 mm 5 W/m2
08:00 8.7 °C 7.7 °C 1021.9 hPa West 1.6 km/h 4.8 km/h 93 % 0.3 mm 7 W/m2
08:05 8.7 °C 7.8 °C 1021.9 hPa Calm   4.8 km/h 94 % 0.3 mm 11 W/m2
08:10 8.7 °C 7.8 °C 1021.9 hPa West 1.6 km/h 4.8 km/h 94 % 0.3 mm 16 W/m2
08:15 8.7 °C 7.8 °C 1021.6 hPa West 3.2 km/h 6.4 km/h 94 % 0.5 mm 19 W/m2
08:20 8.6 °C 7.7 °C 1021.6 hPa Calm   6.4 km/h 94 % 0.5 mm 19 W/m2
08:25 8.6 °C 7.7 °C 1021.6 hPa Calm   3.2 km/h 94 % 0.5 mm 25 W/m2
08:30 8.5 °C 7.6 °C 1021.6 hPa West 1.6 km/h 3.2 km/h 94 % 0.5 mm 21 W/m2
08:35 8.3 °C 7.4 °C 1021.6 hPa Calm   3.2 km/h 94 % 0.8 mm 25 W/m2
08:40 8.3 °C 7.4 °C 1021.6 hPa Calm   3.2 km/h 94 % 0.8 mm 19 W/m2
08:45 8.2 °C 7.3 °C 1021.6 hPa Calm   1.6 km/h 94 % 0.8 mm 25 W/m2
08:50 8.2 °C 7.3 °C 1021.2 hPa West 1.6 km/h 1.6 km/h 94 % 1.0 mm 33 W/m2
08:55 8.2 °C 7.5 °C 1021.6 hPa Calm   4.8 km/h 95 % 1.3 mm 30 W/m2
09:00 8.2 °C 7.5 °C 1021.6 hPa Calm   4.8 km/h 95 % 1.3 mm 26 W/m2
09:05 8.2 °C 7.5 °C 1021.6 hPa Calm   3.2 km/h 95 % 1.3 mm 21 W/m2
09:10 8.2 °C 7.4 °C 1021.2 hPa Calm   3.2 km/h 95 % 1.5 mm 16 W/m2
09:15 8.1 °C 7.3 °C 1021.2 hPa Calm   3.2 km/h 95 % 1.5 mm 21 W/m2
09:25 8.1 °C 7.3 °C 1021.2 hPa Calm   4.8 km/h 95 % 1.5 mm 25 W/m2
09:30 8.1 °C 7.5 °C 1021.2 hPa Calm     96 % 1.5 mm 23 W/m2
09:40 8.2 °C 7.6 °C 1021.2 hPa West 1.6 km/h 1.6 km/h 96 % 1.5 mm 32 W/m2
09:45 8.1 °C 7.5 °C 1021.2 hPa West 1.6 km/h 3.2 km/h 96 % 1.5 mm 39 W/m2
09:50 8.1 °C 7.5 °C 1020.9 hPa Calm   3.2 km/h 96 % 1.3 mm 49 W/m2
09:55 8.2 °C 7.6 °C 1020.9 hPa Calm   3.2 km/h 96 % 1.0 mm 47 W/m2
10:00 8.3 °C 7.7 °C 1021.2 hPa Calm   1.6 km/h 96 % 0.8 mm 42 W/m2
10:05 8.3 °C 7.7 °C 1020.9 hPa Calm     96 % 0.8 mm 62 W/m2
10:10 8.4 °C 7.8 °C 1020.9 hPa Calm   1.6 km/h 96 % 0.5 mm 86 W/m2
10:15 8.5 °C 7.9 °C 1020.9 hPa Calm   1.6 km/h 96 % 0.5 mm 83 W/m2
10:20 8.6 °C 8.0 °C 1020.9 hPa Calm   1.6 km/h 96 % 0.5 mm 104 W/m2
10:25 8.7 °C 8.1 °C 1020.9 hPa Calm   1.6 km/h 96 % 0.5 mm 83 W/m2
10:30 8.7 °C 8.1 °C 1020.9 hPa Calm   1.6 km/h 96 % 0.5 mm 77 W/m2
10:35 8.8 °C 8.2 °C 1020.9 hPa SW 1.6 km/h 1.6 km/h 96 % 0.5 mm 102 W/m2
10:40 8.8 °C 8.2 °C 1020.9 hPa Calm   3.2 km/h 96 % 0.5 mm 86 W/m2
10:45 8.8 °C 8.2 °C 1021.2 hPa Calm   3.2 km/h 96 % 0.5 mm 90 W/m2
10:50 8.9 °C 8.3 °C 1020.9 hPa SW 3.2 km/h 4.8 km/h 96 % 0.5 mm 70 W/m2
10:55 8.7 °C 8.1 °C 1020.9 hPa South 1.6 km/h 6.4 km/h 96 % 0.5 mm 79 W/m2
11:00 8.8 °C 8.2 °C 1020.9 hPa SSE 3.2 km/h 6.4 km/h 96 % 0.5 mm 70 W/m2
11:05 8.8 °C 8.2 °C 1020.9 hPa South 8.0 km/h 8.0 km/h 96 % 0.8 mm 97 W/m2
11:10 8.8 °C 8.2 °C 1020.9 hPa SSW 6.4 km/h 9.7 km/h 96 % 0.8 mm 77 W/m2
11:15 8.7 °C 8.0 °C 1020.9 hPa SSW 8.0 km/h 11.3 km/h 95 % 1.0 mm 107 W/m2
11:20 8.6 °C 8.0 °C 1020.5 hPa SSW 14.5 km/h 16.1 km/h 96 % 0.8 mm 95 W/m2
11:25 8.6 °C 8.0 °C 1020.5 hPa South 6.4 km/h 17.7 km/h 96 % 1.0 mm 144 W/m2
11:30 8.7 °C 8.1 °C 1020.5 hPa SSW 8.0 km/h 17.7 km/h 96 % 1.0 mm 128 W/m2
11:35 8.6 °C 8.0 °C 1020.2 hPa SSW 8.0 km/h 11.3 km/h 96 % 1.0 mm 148 W/m2
11:40 8.7 °C 8.1 °C 1020.5 hPa South 6.4 km/h 11.3 km/h 96 % 0.8 mm 153 W/m2
11:45 8.6 °C 8.0 °C 1020.5 hPa South 8.0 km/h 14.5 km/h 96 % 1.0 mm 149 W/m2
11:50 8.6 °C 8.0 °C 1020.5 hPa South 6.4 km/h 14.5 km/h 96 % 0.8 mm 148 W/m2
11:55 8.6 °C 8.0 °C 1020.5 hPa SSE 4.8 km/h 14.5 km/h 96 % 0.8 mm 88 W/m2
12:00 8.6 °C 8.0 °C 1020.5 hPa South 4.8 km/h 14.5 km/h 96 % 0.5 mm 120 W/m2
12:10 8.6 °C 8.0 °C 1020.5 hPa SSE 8.0 km/h 17.7 km/h 96 % 1.0 mm 137 W/m2
12:15 8.6 °C 8.0 °C 1020.5 hPa SSE 9.7 km/h 17.7 km/h 96 % 0.8 mm 167 W/m2
12:20 8.6 °C 8.0 °C 1020.5 hPa South 9.7 km/h 17.7 km/h 96 % 0.8 mm 144 W/m2
12:25 8.6 °C 8.0 °C 1020.5 hPa SSE 3.2 km/h 17.7 km/h 96 % 0.8 mm 151 W/m2
12:30 8.6 °C 8.0 °C 1020.5 hPa SSE 11.3 km/h 14.5 km/h 96 % 0.8 mm 104 W/m2
12:35 8.6 °C 8.0 °C 1020.5 hPa South 6.4 km/h 14.5 km/h 96 % 1.0 mm 123 W/m2
12:40 8.5 °C 7.9 °C 1020.5 hPa South 4.8 km/h 14.5 km/h 96 % 1.0 mm 186 W/m2
12:45 8.7 °C 8.1 °C 1020.5 hPa South 9.7 km/h 16.1 km/h 96 % 0.8 mm 163 W/m2
12:50 8.7 °C 8.1 °C 1020.5 hPa South 8.0 km/h 16.1 km/h 96 % 0.8 mm 141 W/m2
12:55 8.8 °C 8.2 °C 1020.2 hPa SSE 9.7 km/h 17.7 km/h 96 % 0.8 mm 220 W/m2
13:00 8.8 °C 8.2 °C 1020.2 hPa South 6.4 km/h 19.3 km/h 96 % 0.8 mm 171 W/m2
13:10 8.8 °C 8.2 °C 1020.2 hPa South 11.3 km/h 19.3 km/h 96 % 0.5 mm 174 W/m2
13:15 8.7 °C 8.1 °C 1019.9 hPa South 9.7 km/h 20.9 km/h 96 % 0.5 mm 160 W/m2
13:20 8.7 °C 8.1 °C 1019.9 hPa South 24.1 km/h 24.1 km/h 96 % 0.5 mm 206 W/m2
13:25 8.7 °C 8.1 °C 1019.9 hPa South 8.0 km/h 24.1 km/h 96 % 0.5 mm 169 W/m2
13:30 8.7 °C 8.1 °C 1019.9 hPa South 11.3 km/h 19.3 km/h 96 % 0.5 mm 105 W/m2
13:40 8.6 °C 7.9 °C 1019.5 hPa SSE 20.9 km/h 24.1 km/h 95 % 0.3 mm 155 W/m2
13:45 8.6 °C 7.8 °C 1019.5 hPa South 12.9 km/h 24.1 km/h 95 % 0.3 mm 165 W/m2
13:55 8.5 °C 7.7 °C 1019.5 hPa South 9.7 km/h 24.1 km/h 95 % 0.3 mm 135 W/m2
14:00 8.5 °C 7.7 °C 1019.5 hPa South 11.3 km/h 17.7 km/h 95 % 0.3 mm 120 W/m2
14:05 8.6 °C 7.9 °C 1019.2 hPa SSE 9.7 km/h 17.7 km/h 95 % 0.0 mm 146 W/m2
14:10 8.6 °C 7.8 °C 1019.2 hPa SE 12.9 km/h 22.5 km/h 95 % 0.3 mm 188 W/m2
14:15 8.6 °C 7.9 °C 1019.2 hPa South 12.9 km/h 22.5 km/h 95 % 0.3 mm 153 W/m2
14:20 8.7 °C 7.9 °C 1019.2 hPa SE 12.9 km/h 19.3 km/h 95 % 0.5 mm 121 W/m2
14:25 8.7 °C 7.9 °C 1019.2 hPa SSE 8.0 km/h 19.3 km/h 95 % 0.5 mm 116 W/m2
14:30 8.6 °C 7.9 °C 1019.2 hPa South 8.0 km/h 17.7 km/h 95 % 0.8 mm 167 W/m2
14:35 8.8 °C 8.2 °C 1019.2 hPa SSE 3.2 km/h 17.7 km/h 96 % 0.8 mm 156 W/m2
14:40 8.8 °C 8.2 °C 1019.2 hPa SSE 11.3 km/h 12.9 km/h 96 % 1.0 mm 148 W/m2
14:45 8.8 °C 8.2 °C 1019.2 hPa SE 8.0 km/h 14.5 km/h 96 % 1.0 mm 125 W/m2
14:50 8.8 °C 8.2 °C 1019.2 hPa SSE 4.8 km/h 14.5 km/h 96 % 1.0 mm 171 W/m2
14:55 8.9 °C 8.3 °C 1019.2 hPa SSE 9.7 km/h 16.1 km/h 96 % 1.0 mm 118 W/m2
15:00 8.9 °C 8.3 °C 1018.8 hPa SE 11.3 km/h 17.7 km/h 96 % 1.3 mm 171 W/m2
15:05 8.9 °C 8.3 °C 1018.8 hPa South 4.8 km/h 17.7 km/h 96 % 1.3 mm 144 W/m2
15:10 8.9 °C 8.3 °C 1018.8 hPa SSE 11.3 km/h 16.1 km/h 96 % 1.3 mm 113 W/m2
15:15 9.0 °C 8.4 °C 1018.8 hPa South 12.9 km/h 16.1 km/h 96 % 1.0 mm 100 W/m2
15:20 8.9 °C 8.3 °C 1018.8 hPa SE 11.3 km/h 16.1 km/h 96 % 1.0 mm 97 W/m2
15:25 8.9 °C 8.3 °C 1018.5 hPa South 12.9 km/h 20.9 km/h 96 % 0.8 mm 171 W/m2
15:30 9.0 °C 8.4 °C 1018.8 hPa SSE 9.7 km/h 20.9 km/h 96 % 0.8 mm 123 W/m2
15:35 9.1 °C 8.5 °C 1018.8 hPa South 6.4 km/h 17.7 km/h 96 % 0.8 mm 123 W/m2
15:40 9.1 °C 8.5 °C 1018.8 hPa SE 12.9 km/h 19.3 km/h 96 % 0.5 mm 183 W/m2
15:45 9.3 °C 8.7 °C 1018.5 hPa South 4.8 km/h 19.3 km/h 96 % 0.8 mm 171 W/m2
15:50 9.3 °C 8.7 °C 1018.5 hPa South 11.3 km/h 19.3 km/h 96 % 0.8 mm 169 W/m2
15:55 9.3 °C 8.7 °C 1018.5 hPa South 4.8 km/h 17.7 km/h 96 % 0.8 mm 125 W/m2
16:00 9.3 °C 8.7 °C 1018.5 hPa SSE 12.9 km/h 17.7 km/h 96 % 0.8 mm 125 W/m2
16:05 9.3 °C 8.7 °C 1018.8 hPa SSE 9.7 km/h 16.1 km/h 96 % 0.8 mm 120 W/m2
16:10 9.3 °C 8.7 °C 1018.8 hPa South 8.0 km/h 16.1 km/h 96 % 0.5 mm 90 W/m2
16:15 9.3 °C 8.7 °C 1018.8 hPa SSE 3.2 km/h 16.1 km/h 96 % 0.5 mm 72 W/m2
16:20 9.3 °C 8.7 °C 1018.8 hPa South 9.7 km/h 16.1 km/h 96 % 0.5 mm 77 W/m2
16:25 9.2 °C 8.6 °C 1018.8 hPa SSE 8.0 km/h 16.1 km/h 96 % 0.5 mm 79 W/m2
16:30 9.2 °C 8.6 °C 1018.8 hPa South 6.4 km/h 16.1 km/h 96 % 0.5 mm 79 W/m2
16:35 9.3 °C 8.7 °C 1018.8 hPa South 6.4 km/h 12.9 km/h 96 % 0.5 mm 76 W/m2
16:40 9.3 °C 8.9 °C 1018.8 hPa SSE 4.8 km/h 11.3 km/h 97 % 0.5 mm 62 W/m2
16:45 9.3 °C 8.9 °C 1018.8 hPa SSE 3.2 km/h 11.3 km/h 97 % 0.3 mm 72 W/m2
16:50 9.3 °C 8.9 °C 1018.8 hPa South 8.0 km/h 11.3 km/h 97 % 0.3 mm 37 W/m2
16:55 9.3 °C 8.8 °C 1018.8 hPa South 3.2 km/h 12.9 km/h 97 % 0.3 mm 72 W/m2
17:00 9.3 °C 8.9 °C 1018.8 hPa SSE 9.7 km/h 12.9 km/h 97 % 0.0 mm 111 W/m2
17:05 9.4 °C 9.0 °C 1018.8 hPa SSW 9.7 km/h 14.5 km/h 97 % 0.0 mm 90 W/m2
17:10 9.4 °C 9.0 °C 1018.8 hPa South 9.7 km/h 14.5 km/h 97 % 0.0 mm 81 W/m2
17:15 9.5 °C 9.0 °C 1018.8 hPa South 4.8 km/h 12.9 km/h 97 % 0.0 mm 67 W/m2
17:20 9.6 °C 9.1 °C 1018.8 hPa South 1.6 km/h 12.9 km/h 97 % 0.0 mm 107 W/m2
17:25 9.7 °C 9.2 °C 1018.8 hPa SSE 8.0 km/h 14.5 km/h 97 % 0.0 mm 118 W/m2
17:30 9.7 °C 9.2 °C 1018.5 hPa SSE 6.4 km/h 14.5 km/h 97 % 0.3 mm 79 W/m2
17:40 9.6 °C 9.2 °C 1018.8 hPa South 3.2 km/h 12.9 km/h 97 % 0.3 mm 28 W/m2
17:45 9.6 °C 9.2 °C 1018.8 hPa South 9.7 km/h 9.7 km/h 97 % 0.3 mm 37 W/m2
17:50 9.7 °C 9.2 °C 1018.8 hPa South 4.8 km/h 9.7 km/h 97 % 0.3 mm 37 W/m2
17:55 9.7 °C 9.2 °C 1018.8 hPa South 4.8 km/h 11.3 km/h 97 % 0.3 mm 44 W/m2
18:00 9.7 °C 9.3 °C 1018.8 hPa South 4.8 km/h 11.3 km/h 97 % 0.3 mm 33 W/m2
18:05 9.8 °C 9.4 °C 1018.8 hPa South 9.7 km/h 9.7 km/h 97 % 0.3 mm 47 W/m2
18:10 9.8 °C 9.4 °C 1018.8 hPa SSE 4.8 km/h 9.7 km/h 97 % 0.3 mm 30 W/m2
18:15 9.8 °C 9.4 °C 1019.2 hPa South 6.4 km/h 9.7 km/h 97 % 0.3 mm 25 W/m2
18:20 9.9 °C 9.4 °C 1019.2 hPa South 6.4 km/h 6.4 km/h 97 % 0.3 mm 21 W/m2
18:25 10.0 °C 9.5 °C 1019.2 hPa South 3.2 km/h 8.0 km/h 97 % 0.3 mm 19 W/m2
18:30 10.0 °C 9.5 °C 1019.2 hPa South 4.8 km/h 9.7 km/h 97 % 0.0 mm 19 W/m2
18:35 10.1 °C 9.6 °C 1019.2 hPa SSW 3.2 km/h 9.7 km/h 97 % 0.0 mm 16 W/m2
18:40 10.1 °C 9.7 °C 1019.2 hPa SSW 3.2 km/h 9.7 km/h 97 % 0.0 mm 11 W/m2
18:45 10.2 °C 9.7 °C 1019.2 hPa SSW 4.8 km/h 9.7 km/h 97 % 0.0 mm 9 W/m2
18:50 10.2 °C 9.7 °C 1019.5 hPa SW 4.8 km/h 9.7 km/h 97 % 0.0 mm 0 W/m2
18:55 10.2 °C 9.9 °C 1019.2 hPa SSW 3.2 km/h 9.7 km/h 98 % 0.0 mm 0 W/m2
19:00 10.2 °C 9.9 °C 1019.5 hPa SW 1.6 km/h 9.7 km/h 98 % 0.0 mm 0 W/m2
19:05 10.3 °C 10.0 °C 1019.5 hPa WSW 4.8 km/h 11.3 km/h 98 % 0.0 mm 0 W/m2
19:10 10.3 °C 10.0 °C 1019.9 hPa SW 3.2 km/h 12.9 km/h 98 % 0.0 mm 0 W/m2
19:15 10.4 °C 10.1 °C 1019.5 hPa West 6.4 km/h 12.9 km/h 98 % 0.0 mm 0 W/m2
19:20 10.4 °C 10.1 °C 1019.5 hPa West 1.6 km/h 11.3 km/h 98 % 0.0 mm 0 W/m2
19:25 10.4 °C 10.1 °C 1019.5 hPa West 1.6 km/h 6.4 km/h 98 % 0.0 mm 0 W/m2
19:30 10.4 °C 10.1 °C 1019.9 hPa WSW 3.2 km/h 9.7 km/h 98 % 0.0 mm 0 W/m2
19:35 10.4 °C 10.1 °C 1019.5 hPa West 1.6 km/h 9.7 km/h 98 % 0.0 mm 0 W/m2
19:40 10.4 °C 10.1 °C 1019.5 hPa West 4.8 km/h 9.7 km/h 98 % 0.0 mm 0 W/m2
19:45 10.4 °C 10.1 °C 1019.5 hPa Calm   9.7 km/h 98 % 0.0 mm 0 W/m2
19:50 10.4 °C 10.1 °C 1019.5 hPa Calm   9.7 km/h 98 % 0.0 mm 0 W/m2
19:55 10.4 °C 10.1 °C 1019.9 hPa West 3.2 km/h 6.4 km/h 98 % 0.0 mm 0 W/m2
20:00 10.4 °C 10.1 °C 1019.9 hPa West 4.8 km/h 9.7 km/h 98 % 0.0 mm 0 W/m2
20:10 10.5 °C 10.2 °C 1020.2 hPa Calm   12.9 km/h 98 % 0.0 mm 0 W/m2
20:15 10.5 °C 10.2 °C 1020.2 hPa WSW 4.8 km/h 12.9 km/h 98 % 0.0 mm 0 W/m2
20:20 10.6 °C 10.3 °C 1020.2 hPa WNW 6.4 km/h 9.7 km/h 98 % 0.0 mm 0 W/m2
20:25 10.6 °C 10.3 °C 1020.5 hPa West 1.6 km/h 11.3 km/h 98 % 0.0 mm 0 W/m2
20:30 10.7 °C 10.4 °C 1020.2 hPa WNW 6.4 km/h 16.1 km/h 98 % 0.0 mm 0 W/m2
20:35 10.8 °C 10.5 °C 1020.5 hPa West 9.7 km/h 16.1 km/h 98 % 0.0 mm 0 W/m2
20:40 10.8 °C 10.5 °C 1020.2 hPa WNW 9.7 km/h 14.5 km/h 98 % 0.0 mm 0 W/m2
20:45 10.9 °C 10.6 °C 1020.2 hPa West 1.6 km/h 14.5 km/h 98 % 0.0 mm 0 W/m2
20:50 10.9 °C 10.6 °C 1019.9 hPa NW 4.8 km/h 11.3 km/h 98 % 0.0 mm 0 W/m2
20:55 10.9 °C 10.6 °C 1020.2 hPa WNW 4.8 km/h 11.3 km/h 98 % 0.0 mm 0 W/m2
21:00 10.9 °C 10.6 °C 1020.2 hPa West 3.2 km/h 12.9 km/h 98 % 0.0 mm 0 W/m2
21:10 10.8 °C 10.5 °C 1019.9 hPa West 3.2 km/h 12.9 km/h 98 % 0.0 mm 0 W/m2
21:15 10.7 °C 10.4 °C 1020.2 hPa West 4.8 km/h 8.0 km/h 98 % 0.0 mm 0 W/m2
21:20 10.7 °C 10.4 °C 1020.2 hPa WNW 11.3 km/h 11.3 km/h 98 % 0.0 mm 0 W/m2
21:25 10.8 °C 10.5 °C 1020.2 hPa WNW 9.7 km/h 11.3 km/h 98 % 0.0 mm 0 W/m2
21:30 10.9 °C 10.6 °C 1020.2 hPa West 4.8 km/h 11.3 km/h 98 % 0.0 mm 0 W/m2
21:35 10.9 °C 10.6 °C 1020.2 hPa WNW 3.2 km/h 11.3 km/h 98 % 0.0 mm 0 W/m2
21:40 10.8 °C 10.5 °C 1020.2 hPa WSW 4.8 km/h 11.3 km/h 98 % 0.0 mm 0 W/m2
21:45 10.8 °C 10.5 °C 1020.2 hPa WNW 8.0 km/h 11.3 km/h 98 % 0.0 mm 0 W/m2
21:50 10.8 °C 10.5 °C 1020.2 hPa West 11.3 km/h 11.3 km/h 98 % 0.0 mm 0 W/m2
21:55 10.8 °C 10.5 °C 1020.2 hPa NW 4.8 km/h 16.1 km/h 98 % 0.0 mm 0 W/m2
22:00 10.8 °C 10.5 °C 1020.5 hPa WNW 1.6 km/h 16.1 km/h 98 % 0.0 mm 0 W/m2
22:05 10.8 °C 10.5 °C 1020.5 hPa West 6.4 km/h 17.7 km/h 98 % 0.0 mm 0 W/m2
22:10 10.9 °C 10.6 °C 1020.5 hPa West 8.0 km/h 17.7 km/h 98 % 0.0 mm 0 W/m2
22:15 10.8 °C 10.5 °C 1020.5 hPa West 9.7 km/h 16.1 km/h 98 % 0.0 mm 0 W/m2
22:20 10.7 °C 10.4 °C 1020.5 hPa West 4.8 km/h 14.5 km/h 98 % 0.0 mm 0 W/m2
22:25 10.7 °C 10.4 °C 1020.5 hPa West 4.8 km/h 14.5 km/h 98 % 0.0 mm 0 W/m2
22:30 10.7 °C 10.4 °C 1020.5 hPa WNW 6.4 km/h 14.5 km/h 98 % 0.0 mm 0 W/m2
22:35 10.6 °C 10.3 °C 1020.9 hPa WNW 6.4 km/h 14.5 km/h 98 % 0.0 mm 0 W/m2
22:40 10.6 °C 10.3 °C 1020.5 hPa West 9.7 km/h 14.5 km/h 98 % 0.0 mm 0 W/m2
22:45 10.6 °C 10.3 °C 1020.9 hPa West 8.0 km/h 14.5 km/h 98 % 0.0 mm 0 W/m2
22:50 10.6 °C 10.3 °C 1021.2 hPa West 4.8 km/h 19.3 km/h 98 % 0.0 mm 0 W/m2
22:55 10.6 °C 10.3 °C 1021.2 hPa West 9.7 km/h 19.3 km/h 98 % 0.0 mm 0 W/m2
23:00 10.6 °C 10.3 °C 1021.2 hPa WNW 4.8 km/h 14.5 km/h 98 % 0.0 mm 0 W/m2
23:05 10.6 °C 10.3 °C 1021.6 hPa West 4.8 km/h 12.9 km/h 98 % 0.0 mm 0 W/m2
23:10 10.6 °C 10.3 °C 1021.6 hPa West 9.7 km/h 12.9 km/h 98 % 0.0 mm 0 W/m2
23:15 10.6 °C 10.3 °C 1021.6 hPa West 9.7 km/h 12.9 km/h 98 % 0.0 mm 0 W/m2
23:20 10.6 °C 10.3 °C 1021.6 hPa West 9.7 km/h 14.5 km/h 98 % 0.0 mm 0 W/m2
23:25 10.6 °C 10.3 °C 1021.6 hPa West 6.4 km/h 14.5 km/h 98 % 0.0 mm 0 W/m2
23:30 10.6 °C 10.3 °C 1021.6 hPa WNW 4.8 km/h 14.5 km/h 98 % 0.0 mm 0 W/m2
23:40 10.6 °C 10.3 °C 1021.2 hPa West 6.4 km/h 14.5 km/h 98 % 0.0 mm 0 W/m2
23:45 10.7 °C 10.4 °C 1021.2 hPa West 1.6 km/h 12.9 km/h 98 % 0.0 mm 0 W/m2
23:50 10.7 °C 10.4 °C 1021.6 hPa WSW 4.8 km/h 11.3 km/h 98 % 0.0 mm 0 W/m2
23:55 10.6 °C 10.3 °C 1021.6 hPa WNW 6.4 km/h 14.5 km/h 98 % 0.3 mm 0 W/m2
Avec l'autorisation de Weather Underground - 1.5 mb